Regional Weather Roundup
Issued by NWS Albany, NY

Home | Current Version | Previous Version | Text Only | Print | Product List | Glossary On
Versions: 1 2 3 4 5 6 7 8 9 10 11 12 13 14 15 16 17 18 19 20 21 22 23 24 25 26 27
000
ASUS41 KALY 280510
RWRALY

NEW YORK STATE HOURLY WEATHER ROUNDUP
NATIONAL WEATHER SERVICE ALBANY NY
100 AM EDT SUN MAY 28 2017

NOTE: "FAIR" INDICATES FEW OR NO CLOUDS BELOW 12,000 FEET WITH NO
SIGNIFICANT WEATHER AND/OR NO OBSTRUCTIONS TO VISIBILITY.

NYZ032-033-038>043-046>054-057>066-NYZ062>081-082-084-280600-
EAST


CITY           SKY/WX    TMP DP  RH WIND       PRES   REMARKS
ALBANY         CLOUDY    62  54  74 CALM      29.89F
GLENS FALLS    NOT AVBL
POUGHKEEPSIE   CLOUDY    62  57  83 CALM      29.90S
NEWBURGH       CLOUDY    63  59  88 VRB6      29.92S
MONTGOMERY     CLOUDY    61  57  87 CALM      29.90F
WHITE PLAINS   MOCLDY    60  55  83 CALM      29.91F
ISLIP          CLOUDY    59  56  89 S7        29.92F
NEW YORK CITY  PTCLDY    62  56  80 SE6       29.90F
CENTRAL PARK   CLEAR     60  56  86 CALM      29.93F
$$

NYZ005>009-017-018-044>046-055-056-280600-
CENTRAL


CITY           SKY/WX    TMP DP  RH WIND       PRES   REMARKS
FULTON         CLEAR     50  49  96 CALM      29.92S FOG
SYRACUSE       PTCLDY    52  52 100 CALM      29.91R
ROME           MOCLDY    55  55 100 CALM      29.93R
ELMIRA         CLOUDY    57  53  86 CALM      29.92S
BINGHAMTON     CLOUDY    57  54  89 CALM      29.93S
MONTICELLO     CLEAR     55  54  94 CALM      29.95R
$$

NYZ026>034-041>043-087-280600-
NORTH


CITY           SKY/WX    TMP DP  RH WIND       PRES   REMARKS
WATERTOWN      CLEAR     48  48 100 CALM      29.91R
FORT DRUM      NOT AVBL
OGDENSBURG     FAIR      55  53  94 CALM      29.89R
MASSENA        PTCLDY    52  51  97 CALM      29.88S
SARANAC LAKE   CLOUDY    39  39 100 CALM      29.90S FOG
PLATTSBURGH    CLEAR     50  49  96 CALM      29.87F
$$

NYZ001>004-010>016-019>021-085-280600-
WEST


CITY           SKY/WX    TMP DP  RH WIND       PRES   REMARKS
NIAGARA FALLS  CLEAR     56  51  84 CALM      29.90F
BUFFALO        PTCLDY    56  52  86 S3        29.90F
DUNKIRK        CLEAR     51  49  92 NE3       29.89F
JAMESTOWN      CLEAR     52  45  76 CALM      29.91F
WELLSVILLE     MOCLDY    54  51  90 CALM      29.95F FOG
ROCHESTER      PTCLDY    53  52  96 CALM      29.91S FOG
PENN YAN       CLEAR     53  50  89 S3        29.92F FOG
$$

             KEY
       WCI = WIND CHILL INDEX
       VSB = VISIBILITY
       HX  = HEAT INDEX
$$




USA.gov is the U.S. government's official web portal to all federal, state and local government web resources and services.